CLX1975 VOMM-WSSS

Flight info

Callsign CLX1975
Flight time N/A
Altitude 35000
Route IDASO2B IDASO N571 GUNIP R467 VKL A464 ARAMA ARAMA1A
Aircraft B744/H-SDE3FGHIM1M2RWXY/LB1

Departure

Time 2026-04-28 03:05
Airport Chennai International Airport (VOMM)

Arrival

Time N/A
Airport Singapore Changi Airport (WSSS)
Time Latitude Longitude Altitude Speed Heading
2026-04-28 02:39 12.99023 80.17751 57 ft 0 kts 159°
2026-04-28 02:52 12.99035 80.17747 57 ft 1 kts 159°
2026-04-28 02:52 12.99044 80.17744 56 ft 2 kts 157°
2026-04-28 02:52 12.99057 80.17737 56 ft 2 kts 147°
2026-04-28 02:52 12.99069 80.17728 55 ft 2 kts 140°
2026-04-28 02:53 12.99080 80.17718 55 ft 2 kts 133°
2026-04-28 02:53 12.99090 80.17705 54 ft 2 kts 125°
2026-04-28 02:53 12.99098 80.17693 54 ft 2 kts 117°
2026-04-28 02:53 12.99104 80.17679 54 ft 2 kts 110°
2026-04-28 02:54 12.99109 80.17664 53 ft 2 kts 102°
2026-04-28 02:54 12.99111 80.17649 53 ft 2 kts 95°
2026-04-28 02:54 12.99112 80.17634 53 ft 2 kts 87°
2026-04-28 02:54 12.99110 80.17619 52 ft 2 kts 79°
2026-04-28 02:55 12.99107 80.17604 52 ft 2 kts 72°
2026-04-28 02:55 12.99104 80.17596 52 ft 1 kts 68°
2026-04-28 02:55 12.99103 80.17594 52 ft 0 kts 68°
2026-04-28 03:00 12.99107 80.17602 52 ft 4 kts 68°
2026-04-28 03:00 12.99132 80.17672 52 ft 16 kts 71°
2026-04-28 03:00 12.99188 80.17825 54 ft 29 kts 71°
2026-04-28 03:01 12.99274 80.18049 56 ft 30 kts 69°
2026-04-28 03:01 12.99343 80.18218 55 ft 19 kts 57°
2026-04-28 03:01 12.99409 80.18299 55 ft 12 kts 43°
2026-04-28 03:01 12.99425 80.18314 55 ft 0 kts 42°
2026-04-28 03:02 12.99429 80.18317 55 ft 3 kts 43°
2026-04-28 03:02 12.99455 80.18342 55 ft 6 kts 43°
2026-04-28 03:03 12.99493 80.18378 56 ft 8 kts 43°
2026-04-28 03:03 12.99544 80.18418 56 ft 8 kts 21°
2026-04-28 03:03 12.99583 80.18400 56 ft 7 kts 268°
2026-04-28 03:03 12.99553 80.18321 55 ft 16 kts 248°
2026-04-28 03:04 12.99472 80.18108 53 ft 55 kts 249°
2026-04-28 03:04 12.99241 80.17490 47 ft 127 kts 248°
2026-04-28 03:04 12.98850 80.16442 56 ft 186 kts 249°
2026-04-28 03:04 12.98380 80.15093 426 ft 208 kts 253°
2026-04-28 03:05 12.98253 80.13593 1023 ft 224 kts 276°
2026-04-28 03:05 12.98801 80.12035 1561 ft 237 kts 299°
2026-04-28 03:05 12.99962 80.10764 1926 ft 257 kts 322°
2026-04-28 03:05 13.01649 80.09956 2236 ft 276 kts 346°
2026-04-28 03:06 13.03613 80.09815 2658 ft 286 kts
2026-04-28 03:06 13.05544 80.10313 3101 ft 293 kts 19°
2026-04-28 03:06 13.07507 80.10977 3560 ft 300 kts 17°
2026-04-28 03:06 13.09522 80.11595 4236 ft 297 kts 17°
2026-04-28 03:07 13.11489 80.12193 4891 ft 295 kts 18°
2026-04-28 03:07 13.13451 80.12787 5484 ft 292 kts 18°
2026-04-28 03:07 13.15393 80.13388 6059 ft 291 kts 19°
2026-04-28 03:07 13.17322 80.13993 6610 ft 290 kts 20°
2026-04-28 03:08 13.19146 80.14834 7152 ft 287 kts 37°
2026-04-28 03:08 13.20597 80.16233 7637 ft 286 kts 56°
2026-04-28 03:08 13.21520 80.18031 8233 ft 283 kts 69°
2026-04-28 03:08 13.22214 80.19912 8726 ft 285 kts 69°
2026-04-28 03:09 13.22938 80.21815 9285 ft 285 kts 68°
2026-04-28 03:09 13.23649 80.23711 9762 ft 288 kts 69°
2026-04-28 03:09 13.24351 80.25623 10313 ft 288 kts 69°
2026-04-28 03:09 13.25047 80.27543 10811 ft 290 kts 69°
2026-04-28 03:10 13.25750 80.29514 11256 ft 295 kts 69°
2026-04-28 03:10 13.26453 80.31513 11640 ft 301 kts 69°
2026-04-28 03:10 13.27171 80.33543 11943 ft 310 kts 69°
2026-04-28 03:10 13.27920 80.35667 12149 ft 320 kts 69°
2026-04-28 03:11 13.28686 80.37844 12200 ft 335 kts 69°
2026-04-28 03:11 13.29495 80.40163 12065 ft 353 kts 71°
2026-04-28 03:11 13.29966 80.42680 12214 ft 362 kts 86°
2026-04-28 03:11 13.29721 80.45241 12531 ft 368 kts 102°
2026-04-28 03:12 13.28812 80.47697 12862 ft 372 kts 113°
2026-04-28 03:12 13.27670 80.50114 13170 ft 374 kts 112°
2026-04-28 03:12 13.26603 80.52518 13490 ft 376 kts 112°
2026-04-28 03:12 13.25523 80.54967 13816 ft 377 kts 112°
2026-04-28 03:13 13.24435 80.57426 14136 ft 379 kts 112°
2026-04-28 03:13 13.23350 80.59889 14465 ft 380 kts 112°
2026-04-28 03:13 13.22259 80.62379 14785 ft 382 kts 112°
2026-04-28 03:13 13.21180 80.64848 15092 ft 383 kts 112°
2026-04-28 03:14 13.20075 80.67375 15407 ft 385 kts 113°
2026-04-28 03:14 13.18986 80.69862 15730 ft 386 kts 113°
2026-04-28 03:14 13.17876 80.72389 16039 ft 388 kts 113°
2026-04-28 03:14 13.16771 80.74906 16373 ft 389 kts 113°
2026-04-28 03:15 13.15654 80.77454 16645 ft 392 kts 113°
2026-04-28 03:15 13.14531 80.80008 16953 ft 393 kts 113°
2026-04-28 03:15 13.13432 80.82574 17205 ft 396 kts 110°
2026-04-28 03:15 13.12765 80.85318 17478 ft 397 kts 96°
2026-04-28 03:16 13.12561 80.88141 17790 ft 398 kts 94°
2026-04-28 03:16 13.12343 80.90926 18090 ft 399 kts 95°
2026-04-28 03:16 13.12096 80.93807 18368 ft 401 kts 94°
2026-04-28 03:16 13.11860 80.96637 18686 ft 403 kts 95°
2026-04-28 03:17 13.11621 80.99484 18940 ft 405 kts 95°
2026-04-28 03:17 13.11130 81.05278 19466 ft 410 kts 94°
2026-04-28 03:17 13.10886 81.08188 19722 ft 412 kts 94°
2026-04-28 03:18 13.10639 81.11128 20003 ft 416 kts 94°
2026-04-28 03:18 13.10384 81.14125 20538 ft 421 kts 94°
2026-04-28 03:18 13.10130 81.17114 21065 ft 426 kts 94°
2026-04-28 03:18 13.09877 81.20136 21688 ft 428 kts 94°
2026-04-28 03:19 13.09619 81.23163 22166 ft 432 kts 94°
2026-04-28 03:19 13.09360 81.26233 22699 ft 436 kts 94°
2026-04-28 03:19 13.09097 81.29371 23217 ft 440 kts 94°
2026-04-28 03:19 13.08830 81.32495 23690 ft 444 kts 94°
2026-04-28 03:20 13.08561 81.35654 24197 ft 448 kts 93°
2026-04-28 03:20 13.08288 81.38832 24627 ft 452 kts 94°
2026-04-28 03:20 13.08017 81.42017 25126 ft 454 kts 93°
2026-04-28 03:20 13.07740 81.45270 25543 ft 459 kts 94°
2026-04-28 03:21 13.07468 81.48512 25997 ft 461 kts 93°
2026-04-28 03:21 13.07187 81.51804 26411 ft 465 kts 94°
2026-04-28 03:21 13.06905 81.55099 26828 ft 468 kts 93°
2026-04-28 03:21 13.06617 81.58447 27230 ft 471 kts 93°
2026-04-28 03:22 13.06328 81.61788 27601 ft 474 kts 93°
2026-04-28 03:22 13.06038 81.65166 27984 ft 477 kts 93°
2026-04-28 03:22 13.05744 81.68542 28330 ft 480 kts 93°
2026-04-28 03:22 13.05449 81.71986 28700 ft 482 kts 93°
2026-04-28 03:23 13.05152 81.75404 29036 ft 485 kts 93°
2026-04-28 03:23 13.04859 81.78860 29368 ft 488 kts 94°
2026-04-28 03:23 13.04570 81.82290 29696 ft 490 kts 94°
2026-04-28 03:23 13.04266 81.85802 30019 ft 492 kts 94°
2026-04-28 03:24 13.03968 81.89276 30334 ft 494 kts 94°
2026-04-28 03:24 13.03665 81.92754 30615 ft 497 kts 94°
2026-04-28 03:24 13.03353 81.96304 30864 ft 500 kts 94°
2026-04-28 03:24 13.03041 81.99849 31088 ft 503 kts 94°
2026-04-28 03:25 13.02729 82.03409 31315 ft 506 kts 95°
2026-04-28 03:25 13.02408 82.07033 31518 ft 510 kts 95°
2026-04-28 03:25 13.02092 82.10645 31722 ft 513 kts 95°
2026-04-28 03:25 13.01766 82.14302 31929 ft 515 kts 95°
2026-04-28 03:26 13.01442 82.17957 32135 ft 518 kts 95°
2026-04-28 03:26 13.01121 82.21607 32347 ft 520 kts 95°
2026-04-28 03:26 13.00795 82.25279 32558 ft 522 kts 95°
2026-04-28 03:26 13.00466 82.29015 32779 ft 523 kts 95°
2026-04-28 03:27 13.00134 82.32721 33014 ft 523 kts 95°
2026-04-28 03:27 12.99801 82.36421 33239 ft 523 kts 95°
2026-04-28 03:27 12.99358 82.40079 33418 ft 523 kts 102°
2026-04-28 03:27 12.98367 82.43697 33549 ft 523 kts 108°
2026-04-28 03:28 12.97282 82.47208 33695 ft 525 kts 107°
2026-04-28 03:28 12.96258 82.50804 33809 ft 528 kts 107°
2026-04-28 03:28 12.94162 82.58084 33878 ft 532 kts 107°
2026-04-28 03:29 12.92084 82.65329 33846 ft 531 kts 107°
2026-04-28 03:29 12.90002 82.72560 33835 ft 529 kts 107°
2026-04-28 03:30 12.87942 82.79723 33842 ft 527 kts 107°
2026-04-28 03:30 12.85864 82.86935 33839 ft 527 kts 107°
2026-04-28 03:31 12.83800 82.94096 33843 ft 527 kts 107°
2026-04-28 03:31 12.81724 83.01286 33827 ft 527 kts 107°
2026-04-28 03:32 12.79652 83.08453 33835 ft 526 kts 107°
2026-04-28 03:32 12.77581 83.15617 33860 ft 527 kts 107°
2026-04-28 03:33 12.75503 83.22794 33866 ft 527 kts 107°
2026-04-28 03:33 12.73409 83.30018 33866 ft 527 kts 107°
2026-04-28 03:34 12.71326 83.37206 33865 ft 527 kts 107°
2026-04-28 03:34 12.69234 83.44378 33864 ft 527 kts 107°
2026-04-28 03:35 12.67155 83.51527 33861 ft 526 kts 107°
2026-04-28 03:35 12.64716 83.58510 33829 ft 524 kts 118°
2026-04-28 03:36 12.61397 83.65157 33875 ft 523 kts 117°
2026-04-28 03:36 12.58188 83.71802 33867 ft 524 kts 117°
2026-04-28 03:37 12.54968 83.78483 33868 ft 524 kts 117°
2026-04-28 03:37 12.51741 83.85173 33861 ft 523 kts 116°
2026-04-28 03:38 12.48533 83.91840 33855 ft 524 kts 117°
2026-04-28 03:38 12.45325 83.98480 33854 ft 524 kts 117°
2026-04-28 03:39 12.42082 84.05190 33852 ft 524 kts 117°
2026-04-28 03:39 12.38863 84.11861 33846 ft 524 kts 117°
2026-04-28 03:40 12.35637 84.18533 33846 ft 524 kts 117°
2026-04-28 03:40 12.32424 84.25175 33846 ft 523 kts 117°
2026-04-28 03:41 12.29219 84.31796 33844 ft 522 kts 116°
2026-04-28 03:41 12.25995 84.38446 33851 ft 521 kts 116°
2026-04-28 03:42 12.22777 84.45086 33847 ft 522 kts 116°
2026-04-28 03:42 12.19544 84.51749 33856 ft 523 kts 116°
2026-04-28 03:43 12.16322 84.58382 33858 ft 522 kts 116°
2026-04-28 03:43 12.13106 84.64999 33858 ft 522 kts 116°
2026-04-28 03:44 12.09889 84.71609 33862 ft 520 kts 116°
2026-04-28 03:44 12.06663 84.78242 33860 ft 519 kts 116°
2026-04-28 03:45 12.03453 84.84836 33864 ft 519 kts 116°
2026-04-28 03:45 12.00244 84.91417 33862 ft 518 kts 116°
2026-04-28 03:46 11.97050 84.97966 33869 ft 519 kts 116°
2026-04-28 03:46 11.93808 85.04610 33866 ft 520 kts 116°
2026-04-28 03:47 11.90588 85.11197 33866 ft 519 kts 116°
2026-04-28 03:47 11.87377 85.17769 33864 ft 519 kts 116°
2026-04-28 03:48 11.84156 85.24352 33864 ft 518 kts 116°
2026-04-28 03:48 11.80950 85.30900 33861 ft 517 kts 116°
2026-04-28 03:49 11.77735 85.37463 33858 ft 516 kts 116°
2026-04-28 03:49 11.74530 85.44005 33863 ft 517 kts 116°
2026-04-28 03:50 11.71308 85.50573 33864 ft 518 kts 116°
2026-04-28 03:50 11.68107 85.57097 33866 ft 518 kts 116°
2026-04-28 03:51 11.64885 85.63652 33862 ft 517 kts 116°
2026-04-28 03:51 11.61672 85.70193 33865 ft 517 kts 116°
2026-04-28 03:52 11.58461 85.76723 33863 ft 515 kts 116°
2026-04-28 03:52 11.55237 85.83271 33869 ft 514 kts 116°
2026-04-28 03:53 11.52035 85.89770 33878 ft 514 kts 116°
2026-04-28 03:53 11.48848 85.96231 33882 ft 514 kts 116°
2026-04-28 03:54 11.45632 86.02747 33886 ft 514 kts 116°
2026-04-28 03:54 11.42415 86.09269 33878 ft 514 kts 116°
2026-04-28 03:55 11.39231 86.15723 33870 ft 513 kts 116°
2026-04-28 03:55 11.36016 86.22226 33865 ft 514 kts 116°
2026-04-28 03:56 11.32812 86.28704 33866 ft 514 kts 116°
2026-04-28 03:56 11.29592 86.35207 33860 ft 514 kts 116°
2026-04-28 03:57 11.26362 86.41733 33863 ft 514 kts 116°
2026-04-28 03:57 11.23158 86.48199 33859 ft 514 kts 116°
2026-04-28 03:58 11.19929 86.54710 33856 ft 514 kts 116°
2026-04-28 03:58 11.16735 86.61146 33857 ft 513 kts 116°
2026-04-28 03:59 11.13494 86.67671 33859 ft 513 kts 116°
2026-04-28 03:59 11.10300 86.74101 33859 ft 513 kts 116°
2026-04-28 04:00 11.07082 86.80574 33856 ft 513 kts 116°
2026-04-28 04:00 11.03853 86.87065 33858 ft 513 kts 116°
2026-04-28 04:01 11.00643 86.93518 33860 ft 513 kts 116°
2026-04-28 04:01 10.97418 86.99990 33860 ft 513 kts 116°
2026-04-28 04:02 10.94205 87.06435 33867 ft 513 kts 116°
2026-04-28 04:02 10.90966 87.12923 33864 ft 514 kts 116°
2026-04-28 04:03 10.87754 87.19356 33863 ft 514 kts 116°
2026-04-28 04:03 10.84512 87.25852 33869 ft 514 kts 116°
2026-04-28 04:04 10.81280 87.32320 33874 ft 513 kts 116°
2026-04-28 04:04 10.78067 87.38749 33869 ft 514 kts 116°
2026-04-28 04:05 10.74818 87.45245 33875 ft 513 kts 116°
2026-04-28 04:05 10.71593 87.51675 33880 ft 513 kts 116°
2026-04-28 04:06 10.68353 87.58144 33878 ft 514 kts 116°
2026-04-28 04:06 10.65114 87.64606 33882 ft 513 kts 116°
2026-04-28 04:07 10.61883 87.71041 33882 ft 512 kts 116°
2026-04-28 04:07 10.58658 87.77471 33879 ft 512 kts 116°
2026-04-28 04:08 10.55428 87.83913 33880 ft 511 kts 116°
2026-04-28 04:08 10.52196 87.90331 33884 ft 511 kts 116°
2026-04-28 04:09 10.48964 87.96751 33882 ft 510 kts 116°
2026-04-28 04:09 10.45739 88.03172 33882 ft 509 kts 116°
2026-04-28 04:10 10.42536 88.09523 33881 ft 508 kts 116°
2026-04-28 04:10 10.39316 88.15927 33881 ft 507 kts 116°
2026-04-28 04:11 10.36118 88.22269 33881 ft 506 kts 116°
2026-04-28 04:11 10.32903 88.28640 33884 ft 506 kts 116°
2026-04-28 04:12 10.29713 88.34969 33879 ft 506 kts 116°
2026-04-28 04:12 10.26503 88.41313 33878 ft 505 kts 116°
2026-04-28 04:13 10.23310 88.47629 33872 ft 505 kts 116°
2026-04-28 04:13 10.20139 88.53981 33860 ft 505 kts 115°
2026-04-28 04:14 10.17207 88.60424 33864 ft 504 kts 114°
2026-04-28 04:14 10.14240 88.66890 33862 ft 504 kts 114°
2026-04-28 04:15 10.11293 88.73315 33863 ft 504 kts 114°
2026-04-28 04:16 10.06859 88.82973 33862 ft 504 kts 114°
2026-04-28 04:16 10.03904 88.89404 33860 ft 505 kts 114°
2026-04-28 04:17 10.00934 88.95871 33861 ft 505 kts 114°
2026-04-28 04:17 9.97976 89.02306 33863 ft 505 kts 114°
2026-04-28 04:18 9.95009 89.08757 33866 ft 504 kts 114°
2026-04-28 04:18 9.92052 89.15179 33868 ft 503 kts 114°
2026-04-28 04:19 9.89097 89.21595 33877 ft 503 kts 114°
2026-04-28 04:19 9.86150 89.27987 33882 ft 503 kts 114°
2026-04-28 04:20 9.83201 89.34386 33887 ft 503 kts 114°
2026-04-28 04:20 9.80233 89.40822 33886 ft 503 kts 114°
2026-04-28 04:21 9.77269 89.47244 33884 ft 503 kts 114°
2026-04-28 04:21 9.74310 89.53655 33896 ft 504 kts 114°
2026-04-28 04:22 9.71340 89.60075 33894 ft 503 kts 114°
2026-04-28 04:22 9.68368 89.66491 33882 ft 502 kts 114°
2026-04-28 04:23 9.65416 89.72877 33879 ft 502 kts 114°
2026-04-28 04:23 9.62458 89.79266 33885 ft 502 kts 114°
2026-04-28 04:24 9.59484 89.85688 33887 ft 503 kts 114°
2026-04-28 04:24 9.56522 89.92079 33888 ft 503 kts 114°
2026-04-28 04:25 9.53548 89.98496 33884 ft 503 kts 114°
2026-04-28 04:25 9.50585 90.04877 33886 ft 503 kts 114°
2026-04-28 04:26 9.47629 90.11251 33883 ft 503 kts 114°
2026-04-28 04:26 9.44646 90.17669 33887 ft 503 kts 114°
2026-04-28 04:27 9.41671 90.24062 33888 ft 503 kts 114°
2026-04-28 04:27 9.38711 90.30431 33884 ft 502 kts 114°
2026-04-28 04:28 9.35725 90.36842 33887 ft 502 kts 114°
2026-04-28 04:28 9.32756 90.43226 33889 ft 502 kts 114°
2026-04-28 04:29 9.29784 90.49613 33886 ft 502 kts 114°
2026-04-28 04:29 9.26803 90.56000 33883 ft 502 kts 114°
2026-04-28 04:30 9.23849 90.62335 33878 ft 502 kts 114°
2026-04-28 04:30 9.20910 90.68636 33872 ft 502 kts 114°
2026-04-28 04:31 9.17945 90.74989 33872 ft 502 kts 114°
2026-04-28 04:31 9.14967 90.81361 33876 ft 501 kts 114°
2026-04-28 04:32 9.12017 90.87664 33880 ft 501 kts 114°
2026-04-28 04:32 9.09038 90.94027 33885 ft 501 kts 114°
2026-04-28 04:33 9.06070 91.00382 33884 ft 501 kts 114°
2026-04-28 04:33 9.03109 91.06709 33886 ft 501 kts 114°
2026-04-28 04:34 9.00133 91.13071 33881 ft 501 kts 114°
2026-04-28 04:34 8.97152 91.19430 33880 ft 500 kts 114°
2026-04-28 04:35 8.94190 91.25737 33878 ft 500 kts 114°
2026-04-28 04:35 8.91201 91.32101 33877 ft 500 kts 114°
2026-04-28 04:36 8.88239 91.38417 33878 ft 499 kts 114°
2026-04-28 04:36 8.85257 91.44772 33883 ft 500 kts 114°
2026-04-28 04:37 8.82291 91.51096 33880 ft 500 kts 114°
2026-04-28 04:37 8.79307 91.57439 33880 ft 500 kts 114°
2026-04-28 04:38 8.76303 91.63821 33880 ft 500 kts 114°
2026-04-28 04:38 8.73330 91.70133 33883 ft 500 kts 114°
2026-04-28 04:39 8.70388 91.76389 33881 ft 500 kts 114°
2026-04-28 04:39 8.67418 91.82693 33877 ft 499 kts 114°
2026-04-28 04:40 8.64465 91.88950 33877 ft 499 kts 114°
2026-04-28 04:40 8.61495 91.95252 33882 ft 499 kts 114°
2026-04-28 04:41 8.58554 92.01612 33882 ft 499 kts 112°
2026-04-28 04:41 8.55741 92.07968 33883 ft 499 kts 112°
2026-04-28 04:42 8.52904 92.14383 33885 ft 499 kts 112°
2026-04-28 04:42 8.50061 92.20791 33884 ft 499 kts 112°
2026-04-28 04:43 8.47227 92.27175 33883 ft 499 kts 112°
2026-04-28 04:43 8.44389 92.33568 33884 ft 500 kts 112°
2026-04-28 04:44 8.41567 92.39934 33885 ft 500 kts 112°
2026-04-28 04:44 8.38729 92.46317 33884 ft 500 kts 112°
2026-04-28 04:45 8.35878 92.52734 33889 ft 500 kts 112°
2026-04-28 04:45 8.33035 92.59138 33884 ft 500 kts 112°
2026-04-28 04:46 8.30189 92.65533 33886 ft 500 kts 112°
2026-04-28 04:46 8.27345 92.71922 33886 ft 501 kts 112°
2026-04-28 04:47 8.24490 92.78340 33882 ft 501 kts 112°
2026-04-28 04:47 8.21627 92.84766 33876 ft 502 kts 112°
2026-04-28 04:48 8.18773 92.91165 33867 ft 502 kts 112°
2026-04-28 04:48 8.15906 92.97594 33868 ft 502 kts 112°
2026-04-28 04:49 8.13053 93.03999 33868 ft 502 kts 112°
2026-04-28 04:49 8.10195 93.10397 33865 ft 503 kts 112°
2026-04-28 04:50 8.07317 93.16842 33864 ft 503 kts 112°
2026-04-28 04:50 8.04443 93.23277 33863 ft 503 kts 112°
2026-04-28 04:51 8.01568 93.29707 33867 ft 503 kts 112°
2026-04-28 04:51 7.98704 93.36111 33870 ft 503 kts 112°
2026-04-28 04:52 7.95825 93.42536 33873 ft 503 kts 112°
2026-04-28 04:52 7.92979 93.48927 33877 ft 503 kts 112°
2026-04-28 04:53 7.90106 93.55389 33879 ft 503 kts 112°
2026-04-28 04:53 7.87244 93.61819 33879 ft 503 kts 112°
2026-04-28 04:54 7.84374 93.68272 33887 ft 503 kts 112°
2026-04-28 04:54 7.81534 93.74655 33884 ft 505 kts 112°
2026-04-28 04:55 7.78673 93.81099 33889 ft 506 kts 112°
2026-04-28 04:55 7.75801 93.87552 33914 ft 507 kts 112°
2026-04-28 04:56 7.73046 93.93745 33944 ft 508 kts 112°
2026-04-28 04:56 7.70152 94.00244 33991 ft 509 kts 112°
2026-04-28 04:57 7.67259 94.06728 34051 ft 509 kts 112°
2026-04-28 04:57 7.64363 94.13217 34115 ft 509 kts 112°
2026-04-28 04:58 7.61480 94.19691 34185 ft 508 kts 112°
2026-04-28 04:58 7.58580 94.26190 34262 ft 508 kts 112°
2026-04-28 04:59 7.55693 94.32640 34333 ft 508 kts 112°
2026-04-28 04:59 7.52800 94.39144 34411 ft 508 kts 112°
2026-04-28 05:00 7.49804 94.45550 34474 ft 508 kts 115°
2026-04-28 05:00 7.46676 94.51967 34550 ft 508 kts 114°
2026-04-28 05:01 7.43577 94.58339 34622 ft 507 kts 114°
2026-04-28 05:01 7.40482 94.64710 34693 ft 507 kts 114°
2026-04-28 05:02 7.37392 94.71069 34780 ft 507 kts 114°
2026-04-28 05:02 7.34301 94.77425 34866 ft 507 kts 114°
2026-04-28 05:03 7.31201 94.83798 34962 ft 507 kts 114°
2026-04-28 05:03 7.28108 94.90150 35060 ft 507 kts 114°
2026-04-28 05:04 7.24994 94.96552 35163 ft 506 kts 114°
2026-04-28 05:04 7.21908 95.02888 35270 ft 505 kts 114°
2026-04-28 05:05 7.18831 95.09210 35371 ft 506 kts 114°
2026-04-28 05:05 7.15711 95.15604 35478 ft 506 kts 114°
2026-04-28 05:06 7.12632 95.21918 35579 ft 507 kts 114°
2026-04-28 05:06 7.09520 95.28291 35687 ft 506 kts 114°
2026-04-28 05:07 7.06411 95.34666 35788 ft 506 kts 114°
2026-04-28 05:07 7.03332 95.40982 35896 ft 506 kts 114°
2026-04-28 05:08 7.00218 95.47347 36003 ft 506 kts 114°
2026-04-28 05:08 6.97115 95.53702 36112 ft 506 kts 114°
2026-04-28 05:09 6.94020 95.60028 36216 ft 506 kts 114°
2026-04-28 05:09 6.90918 95.66378 36326 ft 506 kts 114°
2026-04-28 05:10 6.87803 95.72746 36432 ft 506 kts 114°
2026-04-28 05:10 6.84711 95.79072 36530 ft 505 kts 114°
2026-04-28 05:11 6.81653 95.85311 36641 ft 505 kts 114°
2026-04-28 05:11 6.78540 95.91653 36822 ft 506 kts 114°
2026-04-28 05:12 6.75453 95.98003 36874 ft 507 kts 114°
2026-04-28 05:12 6.72342 96.04321 36868 ft 507 kts 114°
2026-04-28 05:13 6.69215 96.10700 36871 ft 505 kts 114°
2026-04-28 05:13 6.66128 96.17002 36872 ft 505 kts 114°
2026-04-28 05:14 6.63031 96.23310 36871 ft 504 kts 114°
2026-04-28 05:14 6.59970 96.29551 36871 ft 504 kts 114°
2026-04-28 05:15 6.56874 96.35853 36867 ft 504 kts 114°
2026-04-28 05:15 6.53759 96.42187 36867 ft 505 kts 114°
2026-04-28 05:16 6.50671 96.48541 36857 ft 505 kts 111°
2026-04-28 05:16 6.48593 96.55215 36868 ft 501 kts 103°
2026-04-28 05:17 6.45645 96.65253 36863 ft 502 kts 104°
2026-04-28 05:17 6.43659 96.72026 36861 ft 503 kts 104°
2026-04-28 05:18 6.41695 96.78719 36859 ft 503 kts 104°
2026-04-28 05:18 6.39718 96.85463 36861 ft 504 kts 104°
2026-04-28 05:19 6.37743 96.92194 36861 ft 504 kts 104°
2026-04-28 05:19 6.35754 96.98965 36856 ft 504 kts 104°
2026-04-28 05:20 6.33770 97.05721 36864 ft 504 kts 104°
2026-04-28 05:20 6.31793 97.12441 36859 ft 504 kts 104°
2026-04-28 05:21 6.29812 97.19167 36856 ft 503 kts 104°
2026-04-28 05:21 6.27835 97.25891 36858 ft 503 kts 104°
2026-04-28 05:22 6.25851 97.32639 36859 ft 503 kts 104°
2026-04-28 05:22 6.23870 97.39355 36860 ft 502 kts 104°
2026-04-28 05:23 6.21894 97.46060 36859 ft 502 kts 104°
2026-04-28 05:23 6.19912 97.52764 36859 ft 502 kts 104°
2026-04-28 05:24 6.17468 97.59352 36817 ft 505 kts 119°
2026-04-28 05:24 6.15417 97.62194 36834 ft 507 kts 130°
2026-04-28 05:24 6.12978 97.64794 36885 ft 507 kts 131°
2026-04-28 05:25 6.08305 97.70089 36876 ft 509 kts 129°
2026-04-28 05:25 6.03655 97.75442 36859 ft 509 kts 129°
2026-04-28 05:26 5.99047 97.80769 36847 ft 508 kts 129°
2026-04-28 05:26 5.94408 97.86135 36845 ft 508 kts 129°
2026-04-28 05:27 5.89840 97.91428 36844 ft 508 kts 129°
2026-04-28 05:27 5.85218 97.96781 36840 ft 508 kts 129°
2026-04-28 05:28 5.80596 98.02129 36840 ft 507 kts 129°
2026-04-28 05:28 5.75954 98.07503 36838 ft 507 kts 129°
2026-04-28 05:29 5.71346 98.12834 36840 ft 507 kts 129°
2026-04-28 05:29 5.66736 98.18166 36841 ft 507 kts 129°
2026-04-28 05:30 5.62111 98.23519 36840 ft 507 kts 129°
2026-04-28 05:30 5.57491 98.28858 36840 ft 507 kts 129°
2026-04-28 05:31 5.52852 98.34228 36841 ft 507 kts 129°
2026-04-28 05:31 5.48240 98.39562 36840 ft 507 kts 129°
2026-04-28 05:32 5.43601 98.44923 36840 ft 507 kts 129°
2026-04-28 05:32 5.38997 98.50243 36841 ft 507 kts 129°
2026-04-28 05:33 5.34350 98.55607 36843 ft 508 kts 129°
2026-04-28 05:33 5.29718 98.60953 36848 ft 508 kts 130°
2026-04-28 05:34 5.25116 98.66264 36853 ft 508 kts 130°
2026-04-28 05:34 5.20470 98.71627 36858 ft 508 kts 130°
2026-04-28 05:35 5.15838 98.76971 36860 ft 508 kts 130°
2026-04-28 05:35 5.11212 98.82313 36856 ft 508 kts 130°
2026-04-28 05:36 5.06567 98.87669 36861 ft 508 kts 130°
2026-04-28 05:36 5.01920 98.93023 36853 ft 508 kts 130°
2026-04-28 05:37 4.97306 98.98337 36849 ft 508 kts 130°
2026-04-28 05:37 4.92680 99.03673 36841 ft 508 kts 130°
2026-04-28 05:38 4.88055 99.09003 36844 ft 507 kts 130°
2026-04-28 05:38 4.83434 99.14323 36849 ft 507 kts 130°
2026-04-28 05:39 4.78805 99.19656 36847 ft 506 kts 130°
2026-04-28 05:39 4.74204 99.24950 36844 ft 505 kts 130°
2026-04-28 05:40 4.69576 99.30274 36841 ft 504 kts 130°
2026-04-28 05:40 4.64989 99.35555 36847 ft 503 kts 130°
2026-04-28 05:41 4.60503 99.40711 36841 ft 502 kts 130°
2026-04-28 05:41 4.55923 99.45976 36841 ft 502 kts 130°
2026-04-28 05:42 4.51349 99.51257 36840 ft 502 kts 130°
2026-04-28 05:42 4.46937 99.56631 36845 ft 501 kts 127°
2026-04-28 05:43 4.42588 99.62060 36848 ft 500 kts 128°
2026-04-28 05:43 4.38248 99.67489 36665 ft 494 kts 129°
2026-04-28 05:44 4.33943 99.72852 36836 ft 495 kts 128°
2026-04-28 05:44 4.29631 99.78252 36866 ft 500 kts 128°
2026-04-28 05:45 4.25249 99.83726 36847 ft 502 kts 128°
2026-04-28 05:45 4.20903 99.89159 36822 ft 499 kts 128°
2026-04-28 05:46 4.16560 99.94592 36821 ft 497 kts 128°
2026-04-28 05:46 4.12239 99.99995 36823 ft 496 kts 128°
2026-04-28 05:47 4.07933 100.05376 36825 ft 496 kts 128°
2026-04-28 05:47 4.03619 100.10765 36822 ft 495 kts 128°
2026-04-28 05:48 3.99307 100.16153 36816 ft 496 kts 128°
2026-04-28 05:48 3.95008 100.21519 36822 ft 496 kts 128°
2026-04-28 05:49 3.90707 100.26887 36818 ft 496 kts 128°
2026-04-28 05:49 3.86377 100.32295 36824 ft 496 kts 128°
2026-04-28 05:50 3.82083 100.37656 36821 ft 496 kts 128°
2026-04-28 05:50 3.77779 100.43028 36815 ft 496 kts 128°
2026-04-28 05:51 3.73450 100.48425 36822 ft 495 kts 128°
2026-04-28 05:51 3.69160 100.53776 36826 ft 494 kts 128°
2026-04-28 05:52 3.64845 100.59164 36823 ft 494 kts 128°
2026-04-28 05:52 3.60534 100.64535 36840 ft 494 kts 128°
2026-04-28 05:53 3.56237 100.69894 36844 ft 495 kts 128°
2026-04-28 05:53 3.51935 100.75258 36839 ft 495 kts 128°
2026-04-28 05:54 3.47640 100.80606 36834 ft 494 kts 128°
2026-04-28 05:54 3.43344 100.85953 36828 ft 492 kts 128°
2026-04-28 05:55 3.39109 100.91235 36835 ft 492 kts 128°
2026-04-28 05:55 3.34846 100.96590 36841 ft 493 kts 128°
2026-04-28 05:56 3.30571 101.01872 36838 ft 494 kts 128°
2026-04-28 05:56 3.26251 101.07237 36836 ft 495 kts 128°
2026-04-28 05:57 3.21930 101.12601 36829 ft 494 kts 128°
2026-04-28 05:57 3.17648 101.17924 36814 ft 493 kts 128°
2026-04-28 05:58 3.13361 101.23286 36817 ft 492 kts 128°
2026-04-28 05:58 3.09049 101.28577 36821 ft 492 kts 128°
2026-04-28 05:59 3.04761 101.33867 36828 ft 494 kts 128°
2026-04-28 05:59 3.00466 101.39166 36822 ft 495 kts 128°
2026-04-28 06:00 2.96191 101.44444 36821 ft 495 kts 128°
2026-04-28 06:00 2.91869 101.49778 36828 ft 495 kts 128°
2026-04-28 06:01 2.87547 101.55123 36831 ft 494 kts 128°
2026-04-28 06:01 2.83208 101.60471 36826 ft 493 kts 128°
2026-04-28 06:02 2.78961 101.65694 36821 ft 492 kts 128°
2026-04-28 06:02 2.74658 101.71024 36830 ft 493 kts 128°
2026-04-28 06:03 2.69700 101.75722 36805 ft 496 kts 147°
2026-04-28 06:03 2.63724 101.79266 36854 ft 496 kts 146°
2026-04-28 06:04 2.57856 101.82918 36856 ft 498 kts 147°
2026-04-28 06:04 2.52052 101.86540 36850 ft 498 kts 146°
2026-04-28 06:05 2.46206 101.90197 36843 ft 498 kts 146°
2026-04-28 06:05 2.40532 101.93737 36837 ft 498 kts 146°
2026-04-28 06:06 2.34840 101.97301 36843 ft 497 kts 146°
2026-04-28 06:06 2.29405 102.00727 36839 ft 496 kts 146°
2026-04-28 06:07 2.23982 102.03931 36831 ft 496 kts 147°
2026-04-28 06:07 2.17114 102.08356 36786 ft 493 kts 136°
2026-04-28 06:08 2.13580 102.12744 36811 ft 488 kts 117°
2026-04-28 06:08 2.10316 102.19898 36848 ft 490 kts 115°
2026-04-28 06:09 2.07805 102.24862 36850 ft 491 kts 116°
2026-04-28 06:09 2.04811 102.30645 36835 ft 491 kts 117°
2026-04-28 06:10 2.01659 102.36626 36826 ft 490 kts 116°
2026-04-28 06:10 1.98090 102.43481 36827 ft 489 kts 116°
2026-04-28 06:11 1.94919 102.49384 36040 ft 481 kts 117°
2026-04-28 06:11 1.93368 102.52277 35314 ft 471 kts 117°
2026-04-28 06:11 1.92366 102.54138 34836 ft 463 kts 117°
2026-04-28 06:12 1.90367 102.57877 33836 ft 448 kts 117°
2026-04-28 06:12 1.89402 102.59677 33332 ft 442 kts 116°
2026-04-28 06:12 1.87970 102.62350 32500 ft 434 kts 116°
2026-04-28 06:12 1.86565 102.64980 31710 ft 426 kts 116°
2026-04-28 06:13 1.85196 102.67542 30931 ft 419 kts 116°
2026-04-28 06:13 1.83832 102.70098 30134 ft 413 kts 116°
2026-04-28 06:13 1.82491 102.72607 29353 ft 407 kts 116°
2026-04-28 06:13 1.81159 102.75102 28598 ft 411 kts 116°
2026-04-28 06:14 1.79816 102.77607 27911 ft 411 kts 117°
2026-04-28 06:14 1.78031 102.80942 26961 ft 403 kts 116°
2026-04-28 06:14 1.76722 102.83392 26228 ft 398 kts 116°
2026-04-28 06:14 1.75880 102.84970 25754 ft 394 kts 116°
2026-04-28 06:15 1.74144 102.88227 24807 ft 395 kts 116°
2026-04-28 06:15 1.73316 102.89806 24344 ft 391 kts 116°
2026-04-28 06:15 1.72036 102.92207 23628 ft 386 kts 117°
2026-04-28 06:15 1.70410 102.95233 22733 ft 378 kts 116°
2026-04-28 06:16 1.69264 102.97380 22109 ft 372 kts 116°
2026-04-28 06:16 1.68122 102.99516 21517 ft 366 kts 116°
2026-04-28 06:16 1.66934 103.01736 20978 ft 356 kts 116°
2026-04-28 06:16 1.66173 103.03159 20676 ft 356 kts 116°
2026-04-28 06:17 1.65008 103.05345 20277 ft 359 kts 116°
2026-04-28 06:17 1.63458 103.08267 19745 ft 362 kts 116°
2026-04-28 06:17 1.62685 103.09733 19465 ft 363 kts 116°
2026-04-28 06:18 1.60127 103.14024 18558 ft 360 kts 124°
2026-04-28 06:18 1.58674 103.16042 18201 ft 357 kts 123°
2026-04-28 06:18 1.57263 103.18071 17847 ft 355 kts 123°
2026-04-28 06:18 1.55396 103.20737 17382 ft 354 kts 123°
2026-04-28 06:19 1.54026 103.22709 17029 ft 353 kts 123°
2026-04-28 06:19 1.53086 103.24062 16794 ft 352 kts 123°
2026-04-28 06:19 1.51709 103.26038 16454 ft 351 kts 123°
2026-04-28 06:19 1.50321 103.28037 16100 ft 349 kts 123°
2026-04-28 06:20 1.48499 103.30651 15630 ft 346 kts 123°
2026-04-28 06:20 1.47599 103.31948 15395 ft 344 kts 123°
2026-04-28 06:20 1.46256 103.33875 15038 ft 342 kts 123°
2026-04-28 06:20 1.44453 103.36470 14549 ft 339 kts 123°
2026-04-28 06:21 1.43575 103.37732 14319 ft 337 kts 123°
2026-04-28 06:21 1.42227 103.39668 13961 ft 335 kts 123°
2026-04-28 06:21 1.40921 103.41541 13607 ft 333 kts 123°
2026-04-28 06:21 1.39165 103.44062 13135 ft 330 kts 123°
2026-04-28 06:22 1.38295 103.45315 12901 ft 329 kts 123°
2026-04-28 06:22 1.37011 103.47165 12546 ft 328 kts 123°
2026-04-28 06:22 1.35295 103.49629 12086 ft 326 kts 123°
2026-04-28 06:22 1.34011 103.51473 11726 ft 324 kts 123°
2026-04-28 06:23 1.32767 103.53264 11329 ft 319 kts 123°
2026-04-28 06:23 1.31721 103.54766 10971 ft 311 kts 123°
2026-04-28 06:23 1.30391 103.56679 10527 ft 300 kts 123°
2026-04-28 06:23 1.29289 103.58257 10282 ft 287 kts 123°
2026-04-28 06:24 1.28135 103.59915 9991 ft 274 kts 123°
2026-04-28 06:24 1.27069 103.61453 9702 ft 269 kts 123°
2026-04-28 06:24 1.26377 103.62449 9506 ft 271 kts 123°
2026-04-28 06:24 1.25009 103.64406 9150 ft 273 kts 123°
2026-04-28 06:25 1.23879 103.66032 8867 ft 275 kts 123°
2026-04-28 06:25 1.23160 103.67069 8685 ft 276 kts 123°
2026-04-28 06:25 1.21703 103.69165 8309 ft 276 kts 123°
2026-04-28 06:25 1.20643 103.70687 8164 ft 266 kts 123°
2026-04-28 06:26 1.19617 103.72162 7867 ft 261 kts 123°
2026-04-28 06:26 1.18959 103.73108 7590 ft 257 kts 123°
2026-04-28 06:26 1.17677 103.74960 7065 ft 248 kts 123°
2026-04-28 06:26 1.17024 103.75898 6786 ft 244 kts 123°
2026-04-28 06:27 1.16067 103.77271 6376 ft 239 kts 123°
2026-04-28 06:27 1.15155 103.78581 6068 ft 228 kts 123°
2026-04-28 06:27 1.14015 103.80217 5542 ft 220 kts 123°
2026-04-28 06:27 1.13440 103.81044 5257 ft 216 kts 123°
2026-04-28 06:28 1.12310 103.82661 4724 ft 209 kts 123°
2026-04-28 06:28 1.11496 103.83833 4372 ft 202 kts 123°
2026-04-28 06:28 1.10710 103.84963 4136 ft 190 kts 123°
2026-04-28 06:28 1.10218 103.85675 4047 ft 185 kts 123°
2026-04-28 06:29 1.09338 103.87151 4010 ft 188 kts 104°
2026-04-28 06:29 1.09220 103.88010 4051 ft 190 kts 85°
2026-04-28 06:29 1.09868 103.89630 4108 ft 195 kts 48°
2026-04-28 06:29 1.10976 103.90391 4128 ft 198 kts 21°
2026-04-28 06:30 1.11833 103.90651 4150 ft 199 kts 17°
2026-04-28 06:30 1.13007 103.90981 4232 ft 190 kts 19°
2026-04-28 06:30 1.14672 103.91503 4280 ft 192 kts 19°
2026-04-28 06:30 1.15952 103.91901 4250 ft 194 kts 20°
2026-04-28 06:31 1.16751 103.92153 4137 ft 199 kts 19°
2026-04-28 06:31 1.17826 103.92448 3835 ft 207 kts 16°